Weather in Kuantan

Malaysia     3°49′16″N   103°20′10″E
temp.,
°C
wind,
m/s
gust,
m/s
humid.,
%
clouds,
%
prec.,
mm/h
press.,
hPa
HPBL,
m
10 may, mon
mon1023:00+25n119475 1.6 100928
02:00+24nw11968 2.5 100828
05:00+24nw119714 0.0 100718
08:00+25nw11945 0.0 100971
11:00+30ene117139 0.3 1009978
14:00+32e325823 0.3 10061564
17:00+30e34689 0.3 1005639
20:00+26ene128571 0.8 100837
11 may, tue
tue1123:00+25nw018821 0.0 100933
02:00+25wnw11923 0.0 100825
05:00+24wnw11952 0.0 100720
08:00+25sw11905 0.0 100875
11:00+31sw116577 0.0 1009988
14:00+32ese326024 0.3 10061402
17:00+30ese336891 0.4 1004704
20:00+26ene228561 1.4 100743
12 may, wed
wed1223:00+25nw119284 2.1 100820
02:00+24nnw1195100 2.4 100718
05:00+24wnw119548 0.1 100618
08:00+25wnw119291 0.1 100771
11:00+30nne117296 1.0 1008727
14:00+31e226790 2.5 10061172
17:00+31e226874 1.3 1004847
20:00+26ene1186100 2.7 100642
13 may, thu
thu1323:00+26nw118767 0.2 100733
02:00+24w1196100 4.0 100624
05:00+24wnw119759 0.5 100628
08:00+25wsw11934 0.5 100781
11:00+31s126887 0.0 1007896
14:00+30e327585 0.8 1005490
17:00+30ene2377100 1.9 1003557
20:00+26ne1187100 2.6 100633
14 may, fri
fri1423:00+25nne119181 0.2 100735
02:00+25nw11958 0.4 100622
05:00+24wnw119717 0.7 100528
08:00+25wsw1194100 0.8 100669
11:00+30nne1174100 0.5 1007743
14:00+32e226091 0.6 10051448
17:00+30se2375100 0.6 1004592
20:00+26ene1186100 0.9 100634